[[{"header":{"parameterUnit":"m.s-1","parameterCategory":1,"la1":30.2991,"la2":30.254,"lo1":-89.0895,"lo2":-89.0444,"dy":0.0017,"dx":0.0017,"nx":28,"ny":28,"refTime":"2025-09-04T21:00:00:Z","depth":0,"parameterNumber":2,"parameterNumberName":"U-component_of_WINDS"},"data":[0,0,0,0,0,0,0,0,0,0,0,0,0,0,0,0,0,0,0,0,0,0,0,0,0,0,0,0,0,0,0,0,0,0,0,0,0,0,0,0,0,0,0,0,0,0,0,0,0,0,0,0,0,0,0,0,0,0,-0.1135,-0.1134,0,-0.1104,-0.1103,-0.1103,-0.1067,-0.1066,-0.1066,-0.1065,-0.1032,-0.1032,-0.1032,0,0,0,0,0,0,0,0,0,0,0,0,0,-0.1161,-0.1161,-0.1135,-0.1134,-0.1134,-0.1104,-0.1103,-0.1103,-0.1067,-0.1066,-0.1065,-0.1065,-0.1033,-0.1032,-0.1032,0,0,0,0,0,0,0,0,0,0,0,0,0,-0.1142,-0.1161,-0.1135,-0.1112,-0.111,-0.1104,-0.1103,-0.1103,-0.1067,-0.1066,-0.1065,-0.1064,-0.1033,-0.1032,-0.1032,-0.1045,0,0,-0.103,-0.103,0,0,0,0,0,0,0,0,-0.1143,-0.1141,-0.1116,-0.1114,-0.1111,-0.1088,-0.1101,-0.1083,-0.1067,-0.1083,-0.1065,-0.1064,-0.1052,-0.1049,-0.1045,-0.1044,-0.1042,-0.103,-0.103,-0.1029,-0.1029,0,0,0,0,0,0,0,-0.1145,-0.1142,-0.1122,-0.1116,-0.1113,-0.1103,-0.11,-0.1097,-0.1072,-0.1082,-0.1079,-0.1076,-0.105,-0.1046,-0.1044,-0.1042,-0.103,-0.103,-0.1029,-0.1029,-0.1049,-0.105,0,0,0,0,0,0,-0.1149,-0.1144,-0.1123,-0.1121,-0.1125,-0.1104,-0.1099,-0.1096,-0.1072,-0.1068,-0.1077,-0.1074,-0.1047,-0.1045,-0.1043,-0.1057,-0.1029,-0.1029,-0.1029,-0.1048,-0.1049,-0.105,0,0,0,0,0,0,-0.115,-0.1148,-0.1125,-0.1132,-0.1128,-0.1104,-0.1101,-0.1096,-0.1092,-0.1068,-0.1064,-0.1077,-0.1047,-0.1044,-0.1045,-0.1056,-0.1029,-0.1028,-0.1047,-0.1048,-0.1049,-0.1086,0,0,0,0,0,0,-0.1151,-0.1148,-0.1154,-0.1132,-0.1128,-0.1127,-0.1101,-0.1096,-0.1091,-0.1088,-0.1068,-0.1064,-0.1046,-0.1046,-0.1044,-0.1054,-0.1028,-0.1046,-0.1048,-0.1049,-0.1083,-0.1088,-0.1092,0,0,0,0,0,-0.1152,-0.1165,-0.1154,-0.1152,-0.1134,-0.1128,-0.1125,-0.1105,-0.1092,-0.1097,-0.1082,-0.1064,-0.1055,-0.1046,-0.1044,-0.1054,-0.1045,-0.1047,-0.1049,-0.1081,-0.1087,-0.1092,0,0,0,0,0,0,-0.1188,-0.1162,-0.1149,-0.1155,-0.1144,-0.1122,-0.1127,-0.1112,-0.1104,-0.1101,-0.1075,-0.1071,-0.1075,-0.1065,-0.1056,-0.1066,-0.1047,-0.1049,-0.1073,-0.1078,-0.1082,-0.1084,-0.1027,0,0,0,0,0,-0.1196,-0.1194,-0.1171,-0.1179,-0.1174,-0.1152,-0.1148,-0.1134,-0.1121,-0.1116,-0.1101,-0.1089,-0.1083,-0.108,-0.1073,-0.1082,-0.1076,-0.1087,-0.1092,-0.1095,-0.1097,-0.1101,-0.1105,-0.1056,-0.1056,-0.1056,0,0,-0.1214,-0.1199,-0.1199,-0.1186,-0.1175,-0.1173,-0.1148,-0.1147,-0.1145,-0.1116,-0.1116,-0.1104,-0.1089,-0.1094,-0.1095,-0.1085,-0.1109,-0.1098,-0.1101,-0.11,-0.1103,-0.1108,-0.1112,-0.1057,-0.1057,-0.1057,0,0,-0.1245,-0.1234,-0.1239,-0.1229,-0.1214,-0.1199,-0.12,-0.118,-0.1172,-0.1171,-0.1149,-0.1146,-0.1137,-0.1127,-0.1121,-0.1149,-0.1132,-0.1147,-0.1169,-0.1173,-0.1177,-0.118,-0.119,-0.1194,-0.1149,-0.1149,-0.1149,0,-0.1269,-0.1266,-0.1244,-0.1244,-0.1239,-0.1212,-0.1217,-0.1208,-0.1191,-0.1188,-0.1177,-0.1165,-0.1153,-0.1155,-0.1162,-0.1158,-0.1158,-0.1149,-0.1178,-0.1181,-0.1184,-0.1193,-0.1197,-0.1151,-0.1151,-0.115,-0.115,0,-0.1296,-0.1293,-0.1299,-0.1284,-0.1279,-0.1282,-0.126,-0.1258,-0.1243,-0.123,-0.123,-0.1214,-0.1204,-0.1203,-0.1189,-0.1204,-0.1198,-0.1183,-0.1164,-0.1191,-0.1199,-0.1203,-0.1154,-0.1153,-0.1152,-0.1152,0,0,-0.1348,-0.1321,-0.1324,-0.1317,-0.1298,-0.1295,-0.1297,-0.1287,-0.1286,-0.1275,-0.1275,-0.1268,-0.1254,-0.1247,-0.1231,-0.1235,-0.1258,-0.1219,-0.1219,-0.1227,-0.1272,-0.1284,-0.1288,-0.1246,-0.1247,-0.1247,-0.1274,0,-0.1376,-0.1377,-0.1358,-0.1364,-0.1362,-0.1337,-0.1338,-0.1326,-0.1313,-0.1309,-0.1294,-0.129,-0.1272,-0.1268,-0.127,-0.1255,-0.1266,-0.1252,-0.1246,-0.1246,-0.1251,-0.1293,-0.1305,-0.133,-0.1277,-0.1277,-0.1278,0,-0.1409,-0.1401,-0.1407,-0.1388,-0.1386,-0.1387,-0.1377,-0.1374,-0.136,-0.135,-0.1342,-0.1325,-0.1324,-0.1306,-0.1305,-0.1296,-0.1292,-0.1284,-0.1285,-0.1284,-0.1264,-0.1293,-0.1338,-0.1342,-0.1282,-0.1282,-0.1282,0,-0.1447,-0.1437,-0.144,-0.1434,-0.1412,-0.1414,-0.1404,-0.139,-0.1385,-0.1376,-0.1373,-0.1363,-0.1358,-0.1351,-0.1332,-0.132,-0.1333,-0.1313,-0.1325,-0.1325,-0.1329,-0.1329,-0.1374,-0.1326,-0.1326,-0.1326,-0.1326,0,-0.148,-0.1485,-0.1457,-0.1458,-0.1463,-0.144,-0.1445,-0.1433,-0.1421,-0.1419,-0.1396,-0.1396,-0.1369,-0.1365,-0.135,-0.1351,-0.1349,-0.1341,-0.1337,-0.1343,-0.1344,-0.1341,-0.1338,-0.1327,-0.1327,-0.1327,-0.1326,0,-0.1524,-0.1505,-0.1506,-0.1485,-0.148,-0.1484,-0.1466,-0.1466,-0.1452,-0.145,-0.1449,-0.1426,-0.142,-0.14,-0.1389,-0.1378,-0.1385,-0.1377,-0.139,-0.1387,-0.14,-0.1399,-0.1445,-0.145,-0.1398,-0.1399,-0.1399,0,-0.1546,-0.155,-0.1529,-0.1527,-0.1518,-0.1515,-0.151,-0.1488,-0.1484,-0.1468,-0.1471,-0.1463,-0.1456,-0.1448,-0.143,-0.1422,-0.1413,-0.143,-0.1412,-0.1418,-0.1414,-0.1414,-0.1414,-0.1434,-0.1434,-0.1435,-0.1435,0,-0.1588,-0.1579,-0.1573,-0.1565,-0.156,-0.1552,-0.1542,-0.1541,-0.1516,-0.1513,-0.1507,-0.1501,-0.149,-0.1483,-0.1472,-0.1462,-0.1445,-0.1441,-0.1443,-0.145,-0.1458,-0.1454,-0.1401,-0.144,-0.144,-0.1439,-0.1439,-0.1439,-0.1622,-0.1624,-0.161,-0.1604,-0.1595,-0.1587,-0.1586,-0.1572,-0.1567,-0.1556,-0.1543,-0.1539,-0.1525,-0.1508,-0.1499,-0.1495,-0.1485,-0.1489,-0.1489,-0.1491,-0.1494,-0.1458,-0.1493,-0.1492,-0.1492,-0.1492,-0.1492,0,-0.1663,-0.1653,-0.1648,-0.1636,-0.1632,-0.1616,-0.1605,-0.1602,-0.1599,-0.1587,-0.1581,-0.1574,-0.1567,-0.1548,-0.154,-0.154,-0.1532,-0.1538,-0.1538,-0.1536,-0.1503,-0.1502,-0.1545,-0.1545,-0.1545,-0.1545,-0.1545,-0.1545,-0.1684,-0.1686,-0.1675,-0.1672,-0.1662,-0.1658,-0.1653,-0.1645,-0.1636,-0.1629,-0.1623,-0.1612,-0.1597,-0.1587,-0.158,-0.1575,-0.1573,-0.1582,-0.1574,-0.1543,-0.1538,-0.1534,-0.1533,-0.1582,-0.1582,-0.1608,-0.1608,-0.1608]},{"header":{"parameterUnit":"m.s-1","parameterCategory":1,"la1":30.2991,"la2":30.254,"lo1":-89.0895,"lo2":-89.0444,"dy":0.0017,"dx":0.0017,"nx":28,"ny":28,"refTime":"2025-09-04T21:00:00:Z","depth":0,"parameterNumber":3,"parameterNumberName":"V-component_of_WINDS"},"data":[0,0,0,0,0,0,0,0,0,0,0,0,0,0,0,0,0,0,0,0,0,0,0,0,0,0,0,0,0,0,0,0,0,0,0,0,0,0,0,0,0,0,0,0,0,0,0,0,0,0,0,0,0,0,0,0,0,0,0.3118,0.3117,0,0.3101,0.3101,0.3101,0.31,0.31,0.3101,0.3101,0.3083,0.3083,0.3082,0,0,0,0,0,0,0,0,0,0,0,0,0,0.3146,0.3145,0.3118,0.3117,0.3117,0.3101,0.3101,0.3101,0.31,0.31,0.3101,0.3101,0.3084,0.3083,0.3082,0,0,0,0,0,0,0,0,0,0,0,0,0,0.3132,0.3145,0.3118,0.3115,0.3115,0.3101,0.3101,0.3101,0.31,0.31,0.3101,0.3101,0.3084,0.3083,0.3082,0.307,0,0,0.3079,0.3079,0,0,0,0,0,0,0,0,0.3132,0.3131,0.3116,0.3115,0.3115,0.3103,0.3104,0.309,0.31,0.3106,0.3101,0.3101,0.309,0.3088,0.3084,0.3069,0.3068,0.3079,0.3078,0.3078,0.3078,0,0,0,0,0,0,0,0.3133,0.3131,0.3111,0.3115,0.3115,0.3114,0.3112,0.3102,0.3096,0.3105,0.3105,0.3103,0.3089,0.3085,0.3084,0.3068,0.3079,0.3078,0.3078,0.3077,0.3038,0.3038,0,0,0,0,0,0,0.3135,0.3132,0.3112,0.3111,0.3125,0.3113,0.3111,0.3106,0.3096,0.3095,0.3103,0.3103,0.3087,0.3085,0.3083,0.3066,0.3078,0.3077,0.3076,0.3039,0.3038,0.3038,0,0,0,0,0,0,0.3136,0.3133,0.3112,0.3121,0.3118,0.3112,0.3107,0.3106,0.3102,0.3095,0.3093,0.31,0.3087,0.3085,0.3072,0.3066,0.3077,0.3076,0.3039,0.3038,0.3038,0.3033,0,0,0,0,0,0,0.3137,0.3134,0.313,0.3121,0.3118,0.3102,0.3107,0.3105,0.31,0.31,0.3091,0.309,0.3087,0.3074,0.3072,0.3064,0.3075,0.304,0.3039,0.3038,0.3034,0.3032,0.3031,0,0,0,0,0,0.3138,0.313,0.313,0.3127,0.3113,0.3102,0.31,0.3097,0.31,0.3095,0.309,0.3091,0.3067,0.3073,0.307,0.3063,0.304,0.3039,0.3038,0.3034,0.3033,0.3031,0,0,0,0,0,0,0.3139,0.3129,0.3129,0.3118,0.3111,0.3102,0.3096,0.3096,0.3088,0.3088,0.3084,0.3082,0.3069,0.3065,0.3071,0.3048,0.3054,0.3052,0.3052,0.305,0.3049,0.3049,0.3074,0,0,0,0,0,0.3138,0.313,0.3122,0.3113,0.3109,0.3103,0.3098,0.3096,0.3088,0.3085,0.308,0.3072,0.3062,0.3056,0.3047,0.3033,0.303,0.3026,0.3025,0.3024,0.3022,0.3011,0.3009,0.3034,0.3034,0.3034,0,0,0.3136,0.3129,0.3125,0.3113,0.3107,0.3098,0.3101,0.3092,0.3084,0.3084,0.3071,0.3066,0.3057,0.3043,0.3037,0.3039,0.3014,0.3023,0.3022,0.3021,0.301,0.3007,0.3005,0.3034,0.3034,0.3034,0,0,0.3127,0.3122,0.3113,0.3106,0.3097,0.3092,0.309,0.3081,0.3077,0.3064,0.3063,0.3053,0.3038,0.303,0.3025,0.3009,0.3008,0.3006,0.2999,0.2988,0.2986,0.2984,0.2976,0.2973,0.3005,0.3005,0.3005,0,0.3125,0.3112,0.3108,0.3098,0.3092,0.309,0.3079,0.3073,0.3061,0.3056,0.3059,0.3037,0.3031,0.3014,0.301,0.3006,0.3001,0.3007,0.2987,0.2985,0.2983,0.2975,0.2972,0.3004,0.3004,0.3004,0.3004,0,0.3109,0.31,0.3093,0.3081,0.3074,0.3063,0.3057,0.305,0.3047,0.3042,0.3027,0.3019,0.3007,0.3003,0.3001,0.2984,0.2985,0.2988,0.2992,0.298,0.2972,0.297,0.3004,0.3004,0.3004,0.3004,0,0,0.3102,0.3085,0.3083,0.3076,0.3064,0.3056,0.3044,0.3032,0.3025,0.3016,0.3005,0.299,0.299,0.2984,0.2981,0.2971,0.2956,0.2974,0.2974,0.2969,0.2933,0.293,0.2927,0.2955,0.2955,0.2954,0.2933,0,0.3091,0.3071,0.3065,0.3047,0.3037,0.3033,0.3023,0.3013,0.3007,0.2996,0.299,0.2978,0.2981,0.2977,0.2967,0.296,0.2948,0.2961,0.2943,0.2942,0.2944,0.2923,0.2921,0.2902,0.293,0.293,0.2929,0,0.3075,0.3064,0.3045,0.3031,0.3027,0.3017,0.3004,0.2994,0.2982,0.2978,0.2968,0.2965,0.2951,0.2957,0.2936,0.2945,0.2937,0.2931,0.293,0.2928,0.2934,0.2918,0.2896,0.2892,0.2925,0.2925,0.2926,0,0.3069,0.305,0.3035,0.303,0.3014,0.3006,0.2999,0.2988,0.2979,0.2967,0.2961,0.2947,0.294,0.2928,0.2921,0.2926,0.2899,0.2905,0.2893,0.2893,0.2887,0.2888,0.2861,0.2885,0.2885,0.2885,0.2885,0,0.3056,0.3044,0.3032,0.3023,0.3008,0.3001,0.2986,0.2979,0.2968,0.2956,0.2952,0.2941,0.2932,0.2919,0.2913,0.2894,0.2891,0.2886,0.2884,0.2886,0.2886,0.2879,0.288,0.2884,0.2885,0.2885,0.2885,0,0.3048,0.304,0.3023,0.3008,0.3003,0.2993,0.2979,0.2969,0.2962,0.2946,0.2942,0.2931,0.2914,0.2905,0.2886,0.2881,0.286,0.286,0.2864,0.2863,0.285,0.2851,0.2818,0.2812,0.2841,0.2841,0.2841,0,0.304,0.303,0.3013,0.3004,0.2997,0.2984,0.2974,0.2966,0.2956,0.2939,0.293,0.2914,0.29,0.2873,0.2863,0.2846,0.2845,0.2834,0.2842,0.2842,0.2841,0.2841,0.2839,0.2832,0.2832,0.2832,0.2832,0,0.3026,0.3021,0.3008,0.2992,0.2981,0.2968,0.2956,0.2948,0.2937,0.2926,0.2909,0.2898,0.2876,0.2858,0.284,0.2832,0.2829,0.2829,0.2825,0.2825,0.2827,0.2823,0.2858,0.283,0.283,0.283,0.283,0.283,0.3016,0.3005,0.2991,0.2975,0.2964,0.2952,0.294,0.293,0.2916,0.2897,0.2892,0.2873,0.2858,0.2833,0.2824,0.2807,0.2809,0.2805,0.2803,0.2801,0.2799,0.283,0.2805,0.2805,0.2805,0.2805,0.2805,0,0.2999,0.2989,0.2975,0.2956,0.2943,0.2941,0.2925,0.2914,0.2897,0.2883,0.2869,0.2847,0.2829,0.2815,0.2796,0.2785,0.2783,0.278,0.278,0.2777,0.28,0.2804,0.2782,0.2782,0.2782,0.2782,0.2782,0.2782,0.2989,0.2971,0.2964,0.2938,0.2928,0.2909,0.29,0.2887,0.2875,0.285,0.2835,0.2826,0.2811,0.279,0.2772,0.2768,0.276,0.2757,0.2753,0.2774,0.2777,0.2779,0.2783,0.2756,0.2756,0.2732,0.2732,0.2731]}]]